Погода в Каррате

Австралия     20˚44′11″S   116˚50′42″E
темп.,
°C
ветер,
м/с
пор.,
м/с
влажн.,
%
обл.,
%
осадки,
мм/ч
давл.,
гПа
погр.,
м
18 января, пн
пн1823:00+34˚зсз333961 0.0 100736
02:00+33˚зюз485270 0.0 1006300
05:00+33˚ююз5104577 0.0 1007311
08:00+36˚вюв673261 0.0 1008464
11:00+39˚всв882820 0.0 10081898
14:00+38˚ссв883129 0.0 10051263
17:00+36˚с78380 0.0 1005640
20:00+32˚ссз57580 0.0 1007326
19 января, вт
вт1923:00+33˚з345353 0.0 1009234
02:00+32˚з465635 0.0 1007163
05:00+31˚зюз565911 0.0 1007175
08:00+35˚ююв672915 0.0 1008309
11:00+40˚св332317 0.0 10072239
14:00+39˚с87279 0.0 10051249
17:00+36˚ссз66385 0.0 1005677
20:00+32˚сз455815 0.0 1007252
20 января, ср
ср2023:00+32˚зюз675981 0.0 1008296
02:00+32˚зюз8114758 0.0 1006340
05:00+31˚сз445933 0.0 100673
08:00+34˚ююз234417 0.0 1007353
11:00+40˚св12260 0.0 10072215
14:00+39˚ссз77314 0.0 1004789
17:00+37˚зсз66351 0.0 1003551
20:00+34˚з67542 0.0 1005255
21 января, чт
чт2123:00+33˚з475461 0.0 1005222
02:00+32˚зюз455631 0.0 100393
05:00+31˚всв12600 0.0 100426
08:00+33˚св55600 0.0 1005419
11:00+36˚св77500 0.0 1006864
14:00+35˚св87510 0.0 1003823
17:00+32˚св99630 0.0 1002803
20:00+30˚ссв8107412 0.0 1005674
22 января, пт
пт2223:00+30˚с797367 0.0 1007617
02:00+29˚с457371 0.0 1005594
05:00+29˚ссз336829 0.0 1004221
08:00+31˚ссв336315 0.0 1005769
11:00+33˚с54550 0.0 1005979
14:00+33˚ссз75540 0.0 1002853
17:00+32˚сз77600 0.0 1002658
20:00+29˚ююв88726 1.4 1004805